Tracking 28052 objects as of 22-Sep-2023
HD Live streaming from Space Station
objects crossing your sky now

STARLINK-5721

Track STARLINK-5721 now!
10-day predictions
STARLINK-5721 is classified as:


NORAD ID: 55617
Int'l Code: 2023-020BA
Perigee: 565.5 km
Apogee: 567.0 km
Inclination: 43.0 °
Period: 95.8 minutes
Semi major axis: 6937 km
RCS: Unknown
Launch date: February 12, 2023
Source: United States (US)
Launch site: AIR FORCE EASTERN TEST RANGE (AFETR)
Your satellite tracking list
Your tracking list is empty




NASA's NSSDC Master Catalog

Two Line Element Set (TLE):
1 55617U 23020BA  23264.86833964  .00000961  00000-0  86218-4 0  9990
2 55617  43.0036 200.9720 0001092 267.2077  92.8641 15.02532955 33716
Source of the keplerian elements: AFSPC